Follow iAlert.com on twitter @ialertcom
Search For Active Alerts in Your Area  
  Hi Guest:  [ Sign-up / Services ] [ Login ]

Current weather by "City, St" or "zip code"  
 

Advertise Here

Current Conditions: Quakertown Airport, PA

Fair


52.0 F

Last Updated on Nov 22 2017, 10:55 am EST
Humidity: 67%
Wind Speed: W 6.9 mph
Barometer 29.93 in
Dewpoint: 41.0 F
Visibility: 10.00 mi
Precip: --
Heat Index: NA
Wind Chill: 50 F
Current conditions at:

Quakertown Airport, PA (KUKT)

Lat: 40.43 Lon: 75.38

Local Radar Image active severe weather and emergency alerts image image weather storm and storm spotter reports image weather observation monitoring service image
Local
Radar
Active
Alerts
Storm Reports Obs
Monitoring

iAlert Weather and Emergency Alert Notification Services:


ialert severe weather and emergency alerts by text message and email ialert daily weather forecast by email and text message service ialert real-time weather-observation monitoring and alert notification service ialert storm report monitoring alert notification

Observation History for Quakertown Airport, PA


Time Wind
(mph)
Vis
(mi)
Weather Precip (in) Temperature (F) Relative
Humidity
Wind
Chill
(°F)
Heat
Index
(°F)
Pressure
Air Dwpt altimeter
(in)
sea level
(mb)
10:55 am EST W 6.9 10.00 Fair -- 52.0 41.0 67% 50 NA 29.93 M
9:55 am EST N 0.0 10.00 Fair -- 48.0 44.6 87% NA NA 29.93 M
8:55 am EST N 0.0 10.00 Mostly Cloudy -- 45.0 44.6 100% NA NA 29.92 M
7:55 am EST N 0.0 10.00 Overcast -- 41.0 41.0 100% NA NA 29.93 M
6:55 am EST N 0.0 9.00 Overcast -- 41.0 41.0 100% NA NA 29.92 M
5:55 am EST N 0.0 10.00 Partly Cloudy -- 41.0 39.2 93% NA NA 29.90 M
4:55 am EST N 0.0 10.00 Mostly Cloudy -- 39.0 39.2 100% NA NA 29.91 M
3:55 am EST N 0.0 10.00 A Few Clouds -- 39.0 39.2 100% NA NA 29.92 M
2:55 am EST N 0.0 10.00 Fair -- 39.0 37.4 93% NA NA 29.95 M
1:55 am EST N 0.0 10.00 A Few Clouds -- 39.0 37.4 93% NA NA 29.97 M
12:55 am EST N 0.0 10.00 Fair -- 39.0 37.4 93% NA NA 29.98 M
11:55 pm EST SE 3.5 10.00 Fair -- 41.0 37.4 87% NA NA 30.00 M
11:35 pm EST N 0.0 10.00 Fair -- 45.0 39.2 81% NA NA 30.00 M
10:55 pm EST S 5.8 10.00 Fair -- 39.0 35.6 87% 35 NA 30.02 M
9:55 pm EST N 0.0 10.00 Fair -- 37.0 32.0 81% NA NA 30.03 M
8:55 pm EST N 0.0 10.00 Fair -- 37.0 32.0 81% NA NA 30.03 M
8:35 pm EST N 0.0 10.00 Fair -- 37.0 32.0 81% NA NA 30.03 M
7:55 pm EST N 0.0 10.00 Fair -- 41.0 33.8 76% NA NA 30.03 M
6:55 pm EST SW 3.5 10.00 Fair -- 39.0 32.0 75% NA NA 30.03 M
5:55 pm EST N 0.0 10.00 Fair -- 45.0 32.0 61% NA NA 30.02 M
4:55 pm EST SW 4.6 10.00 Fair -- 50.0 32.0 50% 48 NA 30.01 M
3:55 pm EST SW 8.1 G 16.1 10.00 Fair -- 54.0 32.0 44% 52 NA 30.01 M
2:55 pm EST SW 10.4 G 16.1 10.00 Fair -- 54.0 30.2 41% 51 NA 30.03 M
1:55 pm EST S 6.9 10.00 Fair -- 55.0 30.2 38% 53 NA 30.02 M

Regional Weather Observation


Allentown Queen City Municipal Airport, PA (KXLL)

Mostly Cloudy
54.0 F

Quakertown Airport, PA (KUKT)

Fair
52.0 F

Reading, Reading Regional Airport, PA (KRDG)

Fair and Breezy
53.0 F

Pottstown, Pottstown Limerick Airport, PA (KPTW)

Fair
53.0 F

Doylestown, Doylestown Airport, PA (KDYL)

Mostly Cloudy
52.0 F

Philadelphia, Northeast Philadelphia Airport, PA (KPNE)

Overcast
56.0 F

Advertise Here